Regional Weather Roundup
Issued by NWS

Home | Current Version | Previous Version | Text Only | Print | Product List | Glossary Off
Versions: 1 2 3 4 5 6 7 8 9 10 11 12 13 14 15 16 17 18 19 20 21 22 23 24 25 26 27 28 29 30 31 32 33 34 35 36 37 38 39 40 41 42 43 44 45 46 47 48 49 50

000
ASUS43 KMKX 231221
RWRWI

WISCONSIN REGIONAL WEATHER ROUNDUP
NATIONAL WEATHER SERVICE MILWAUKEE/SULLIVAN WI
700 AM CDT TUE SEP 23 2014

NOTE: "FAIR" INDICATES FEW OR NO CLOUDS BELOW 12,000 FEET WITH NO
SIGNIFICANT WEATHER AND/OR OBSTRUCTIONS TO VISIBILITY.

WIZ001-002-006>008-014>016-023>028-231300-
NORTHWEST WISCONSIN

CITY           SKY/WX    TMP DP  RH WIND       PRES   REMARKS
SUPERIOR ARPT  CLEAR     42  42 100 CALM      30.19S
6HR MIN TEMP:  42; 6HR MAX TEMP:  52;

ASHLAND        CLEAR     42  41  96 CALM      30.21R
6HR MIN TEMP:  42; 6HR MAX TEMP:  55;

HAYWARD        CLEAR     40  39  97 CALM      30.23R
6HR MIN TEMP:  40; 6HR MAX TEMP:  46;

SIREN          CLEAR     45  43  95 CALM      30.21R
6HR MIN TEMP:  44; 6HR MAX TEMP:  50;

CUMBERLAND     SUNNY     41  41 100 CALM      30.23R FOG
RICE LAKE      CLEAR     43  42  97 CALM      30.25R FOG
6HR MIN TEMP:  43; 6HR MAX TEMP:  47;

CHETEK           N/A     44  44 100 CALM      30.24R
6HR MIN TEMP:  43; 6HR MAX TEMP:  47;

LADYSMITH      CLEAR     44  43  97 CALM      30.27R
6HR MIN TEMP:  43; 6HR MAX TEMP:  47;

EAU CLAIRE     FOG       42  41  96 CALM      30.23S VSB 1/2
6HR MIN TEMP:  42; 6HR MAX TEMP:  48;

MENOMONIE      FOG       46  45  99 E3        30.24R VSB<1/4
6HR MIN TEMP:  45; 6HR MAX TEMP:  50;

NEW RICHMOND   CLEAR     47  46  99 CALM      30.22R
6HR MIN TEMP:  46; 6HR MAX TEMP:  50;

OSCEOLA        CLEAR     46  46 100 E3        30.24R
6HR MIN TEMP:  46; 6HR MAX TEMP:  53;

$$

WIZ003>005-009-010-017-018-231300-
NORTH CENTRAL WISCONSIN

CITY           SKY/WX    TMP DP  RH WIND       PRES   REMARKS
MANITOWISH WTR MOSUNNY   38  38 100 CALM      30.24R FOG
6HR MIN TEMP:  38; 6HR MAX TEMP:  46;

ARBOR VITAE    CLEAR     42  41  95 CALM      30.25R
6HR MIN TEMP:  42; 6HR MAX TEMP:  49;

WOODRUFF       CLEAR     42  41  95 CALM      30.25R
6HR MIN TEMP:  42; 6HR MAX TEMP:  49;

RHINELANDER    FOG       39  39 100 CALM      30.27R VSB<1/4
6HR MIN TEMP:  40; 6HR MAX TEMP:  49;

EAGLE RIVER    FOG       39  39 100 CALM      30.25R VSB 1/4
6HR MIN TEMP:  39; 6HR MAX TEMP:  47;

LAND O LAKES     N/A     36  36 100 CALM      30.25R FOG
6HR MIN TEMP:  36; 6HR MAX TEMP:  41;

PHILLIPS       CLEAR     41  41  99 CALM      30.25R
6HR MIN TEMP:  41; 6HR MAX TEMP:  45;

TOMAHAWK       CLEAR     39  38  97 CALM      30.26R
6HR MIN TEMP:  37; 6HR MAX TEMP:  44;

MEDFORD        FOG       40  40 100 CALM      30.26R VSB 1/4
6HR MIN TEMP:  39; 6HR MAX TEMP:  46;

MERRILL        FOG       37  37 100 CALM      30.27R VSB 1/2
6HR MIN TEMP:  37; 6HR MAX TEMP:  41;

$$

WIZ029-030-035-036-043>047-231300-
CENTRAL WISCONSIN

CITY           SKY/WX    TMP DP  RH WIND       PRES   REMARKS
WAUSAU         CLEAR     44  43  96 CALM      30.26R FOG
6HR MIN TEMP:  44; 6HR MAX TEMP:  49;

MOSINEE        FOG       43  43 100 CALM      30.27R VSB 3/4
MARSHFIELD     FOG       45  44  97 CALM      30.26R VSB 1/4
6HR MIN TEMP:  45; 6HR MAX TEMP:  49;

STEVENS POINT  FOG       39  38  99 CALM      30.28R VSB 3/4
6HR MIN TEMP:  38; 6HR MAX TEMP:  44;

WAUPACA          N/A     45  43  95 CALM      30.27R FOG
6HR MIN TEMP:  45; 6HR MAX TEMP:  49;

WAUTOMA        CLEAR     39  39 100 CALM      30.29R FOG
6HR MIN TEMP:  40; 6HR MAX TEMP:  45;

WISC RAPIDS    FOG       42  41  96 CALM      30.28R VSB 1
6HR MIN TEMP:  41; 6HR MAX TEMP:  47;

CAMP DOUGLAS   CLEAR     43  43 100 SE5       30.27R
$$

WIZ011>013-019>022-031-037>040-048>050-231300-
NORTHEAST WISCONSIN

CITY           SKY/WX    TMP DP  RH WIND       PRES   REMARKS
ANTIGO         FOG       41  41 100 CALM      30.27R VSB<1/4
6HR MIN TEMP:  40; 6HR MAX TEMP:  50;

SHAWANO        SUNNY     48  46  95 CALM      30.27R
6HR MIN TEMP:  46; 6HR MAX TEMP:  51;

OCONTO         SUNNY     46  46 100 CALM      30.25R
6HR MIN TEMP:  44; 6HR MAX TEMP:  50;

STURGEON BAY   CLEAR     54  48  82 SW8       30.25S
6HR MIN TEMP:  52; 6HR MAX TEMP:  55;

GREEN BAY      CLEAR     45  45 100 SW3       30.26R FOG
6HR MIN TEMP:  45; 6HR MAX TEMP:  49;

MANITOWOC      CLEAR     52  50  93 W6        30.27R
6HR MIN TEMP:  50; 6HR MAX TEMP:  53;

APPLETON       CLEAR     48  48 100 VRB3      30.27R
CLINTONVILLE   PTCLDY    43  43 100 CALM      30.27R FOG
OSHKOSH        CLEAR     47  45  93 SW5       30.27R
6HR MIN TEMP:  46; 6HR MAX TEMP:  54;

$$

WIZ032>034-041-042-053>061-231300-
SOUTHWEST WISCONSIN

CITY           SKY/WX    TMP DP  RH WIND       PRES   REMARKS
LA CROSSE      FOG       50  48  93 SE6       30.27R VSB 1/4
6HR MIN TEMP:  50; 6HR MAX TEMP:  53;

SPARTA         MOCLDY    37  37 100 CALM      30.28R
VIROQUA        SUNNY     50  47  88 CALM      30.27S
6HR MIN TEMP:  49; 6HR MAX TEMP:  53;

BOSCOBEL       FOG       47  45  93 CALM      30.29R VSB 1/4
6HR MIN TEMP:  45; 6HR MAX TEMP:  48;

PRAIRIE DU CHI FOG       46  44  95 E3        30.28R VSB 1/2
6HR MIN TEMP:  46; 6HR MAX TEMP:  49;

PLATTEVILLE    CLEAR     48  45  90 SE5       30.30R
6HR MIN TEMP:  47; 6HR MAX TEMP:  51;

$$

WIZ056-057-062-063-064-067-068-231300-
SOUTH CENTRAL WISCONSIN

CITY           SKY/WX    TMP DP  RH WIND       PRES   REMARKS
REEDSBURG      SUNNY     42  41  97 CALM      30.28R
6HR MIN TEMP:  41; 6HR MAX TEMP:  46;

BARABOO/DELLS  CLEAR     47  43  87 CALM      30.28R
6HR MIN TEMP:  45; 6HR MAX TEMP:  49;

LONE ROCK      FOG       46  42  86 CALM      30.29R VSB 1/4
6HR MIN TEMP:  46; 6HR MAX TEMP:  50;

MINERAL POINT  CLEAR     48  45  87 SE5       30.29R
MADISON        CLEAR     45  43  93 CALM      30.29R
6HR MIN TEMP:  45; 6HR MAX TEMP:  49;

MIDDLETON        N/A     43  43 100 CALM      30.29R
6HR MIN TEMP:  42; 6HR MAX TEMP:  47;

WATERTOWN      CLEAR     42  42 100 CALM      30.29R
6HR MIN TEMP:  41; 6HR MAX TEMP:  46;

MONROE         CLEAR     48  45  87 SW6       30.29S
JANESVILLE     CLEAR     46  45  93 CALM      30.30R
$$

WIZ051-052-058>065-066-070>072-231300-
SOUTHEAST WISCONSIN

CITY           SKY/WX    TMP DP  RH WIND       PRES   REMARKS
MILWAUKEE      CLEAR     54  45  71 CALM      30.30R
6HR MIN TEMP:  53; 6HR MAX TEMP:  55;

WAUKESHA       CLEAR     45  43  93 CALM      30.30R
MILWAUKEE/TIMM CLEAR     46  45  93 CALM      30.30R
RACINE         CLEAR     51  45  79 W5        30.31R
6HR MIN TEMP:  50; 6HR MAX TEMP:  53;

BURLINGTON     CLEAR     41  41 100 CALM      30.31R FOG
6HR MIN TEMP:  38; 6HR MAX TEMP:  43;

KENOSHA        CLEAR     47  44  90 SW6       30.30S
6HR MIN TEMP:  44; 6HR MAX TEMP:  49;

FOND DU LAC    CLEAR     46  43  89 S5        30.28R
6HR MIN TEMP:  45; 6HR MAX TEMP:  53;

SHEBOYGAN      CLEAR     43  43 100 SW3       30.28R
6HR MIN TEMP:  40; 6HR MAX TEMP:  48;

WEST BEND      CLEAR     43  41  93 CALM      30.29R
JUNEAU         CLEAR     44  43  97 SE3       30.30R
6HR MIN TEMP:  43; 6HR MAX TEMP:  49;

$$

LSZ147-162-231300-
LAKE SUPERIOR

STATION/POSITION TIME  TEMP    WIND        PRES    WAVE
                       AIR SEA DIR/SP/G            HT/PER
                 (UTC) (F)     (DEG/KT/KT) (MB)    (FT/S)
W MID LAKE BUOY  1150   51 48  230/  8/  8 1021.9R   1/ 4
DEVILS ISLAND    1200   58     230/ 12/ 13 1022.4R
PORT WING        1100   53     140/  1/  4 1022.0S
SAXON HARBOR     1100   54     190/  5/  9 1022.4
$$

LMZ867-665-643>646-231300-
LAKE MICHIGAN

STATION/POSITION TIME  TEMP    WIND        PRES    WAVE
                       AIR SEA DIR/SP/G            HT/PER



USA.gov is the U.S. government's official web portal to all federal, state and local government web resources and services.